[[{"header":{"parameterUnit":"m.s-1","parameterCategory":2,"la1":30.2991,"la2":30.254,"lo1":-89.0895,"lo2":-89.0444,"dy":0.0017,"dx":0.0017,"nx":28,"ny":28,"refTime":"2024-05-07T21:00:00:Z","depth":"0","parameterNumber":2,"parameterNumberName":"U-component_of_CURRENTS"},"data":[0,0,0,0,0,0,0,0,0,0,0,0,0,0,0,0,0,0,0,0,0,0,0,0,0,0,0,0,0,0,0,0,0,0,0,0,0,0,0,0,0,0,0,0,0,0,0,0,0,0,0,0,0,0,0,0,0,0,0.252,0.2521,0,0.2589,0.2589,0.259,0.2587,0.2586,0.2585,0.2584,0.2632,0.2634,0.2636,0,0,0,0,0,0,0,0,0,0,0,0,0,0.243,0.2431,0.252,0.2521,0.2522,0.2589,0.2589,0.259,0.2587,0.2586,0.2585,0.2584,0.2631,0.2634,0.2636,0,0,0,0,0,0,0,0,0,0,0,0,0,0.248,0.2432,0.252,0.2529,0.2531,0.2588,0.259,0.2591,0.2587,0.2586,0.2585,0.2584,0.2631,0.2634,0.2637,0.2683,0,0,0.2646,0.2648,0,0,0,0,0,0,0,0,0.2477,0.2483,0.2527,0.2529,0.2531,0.2579,0.2575,0.2621,0.2588,0.2565,0.2584,0.2583,0.2614,0.2618,0.2633,0.2685,0.2687,0.2647,0.2649,0.265,0.2651,0,0,0,0,0,0,0,0.2474,0.248,0.2546,0.2528,0.253,0.2545,0.255,0.2584,0.2595,0.2567,0.2567,0.2577,0.2615,0.263,0.2634,0.2688,0.2647,0.2649,0.2651,0.2653,0.28,0.2802,0,0,0,0,0,0,0.2467,0.2477,0.2544,0.2548,0.2501,0.2548,0.2553,0.2564,0.2595,0.2599,0.2578,0.2576,0.2625,0.2631,0.2636,0.271,0.265,0.2653,0.2655,0.2798,0.2801,0.2803,0,0,0,0,0,0,0.2464,0.2472,0.2541,0.2515,0.2525,0.255,0.2562,0.2566,0.2584,0.2604,0.2607,0.2592,0.2625,0.2631,0.2678,0.2711,0.2654,0.2657,0.2796,0.2799,0.2802,0.2847,0,0,0,0,0,0,0.2462,0.2471,0.248,0.2515,0.2526,0.2586,0.2564,0.2568,0.2592,0.2591,0.2617,0.262,0.2624,0.2673,0.2681,0.2714,0.266,0.2793,0.2797,0.2801,0.2843,0.2851,0.2858,0,0,0,0,0,0.2458,0.2476,0.248,0.2488,0.2536,0.2588,0.2596,0.2608,0.2594,0.2616,0.2631,0.2619,0.2702,0.2678,0.2686,0.2721,0.2792,0.2796,0.2801,0.2839,0.2849,0.2858,0,0,0,0,0,0,0.2445,0.2479,0.2483,0.2511,0.2551,0.2588,0.2609,0.2616,0.2646,0.264,0.2648,0.2654,0.271,0.2713,0.2685,0.2776,0.2745,0.2752,0.2771,0.2781,0.2788,0.2778,0.2662,0,0,0,0,0,0.2447,0.2466,0.2507,0.2532,0.2551,0.2581,0.2602,0.2614,0.2644,0.2655,0.2674,0.2698,0.2738,0.2755,0.2789,0.2839,0.2849,0.2868,0.2875,0.2882,0.2881,0.2913,0.2922,0.2818,0.2818,0.2818,0,0,0.2447,0.247,0.2481,0.253,0.2558,0.2598,0.2591,0.2631,0.2664,0.2657,0.2706,0.2731,0.276,0.2817,0.2841,0.282,0.2926,0.2888,0.2893,0.2888,0.2918,0.2928,0.2937,0.2821,0.2821,0.282,0,0,0.2465,0.2483,0.2507,0.2544,0.2592,0.2616,0.2629,0.2674,0.2693,0.2749,0.2754,0.2793,0.2852,0.2876,0.2896,0.2968,0.297,0.2986,0.3012,0.3043,0.3051,0.3058,0.3117,0.3129,0.2984,0.2984,0.2984,0,0.2463,0.2499,0.2525,0.2566,0.2593,0.2623,0.266,0.2698,0.2752,0.2774,0.2769,0.2859,0.2879,0.2945,0.2971,0.2984,0.3011,0.2971,0.3051,0.3058,0.3064,0.3123,0.3135,0.2987,0.2986,0.2986,0.2986,0,0.2503,0.2535,0.2557,0.261,0.2647,0.2687,0.2737,0.2776,0.2797,0.283,0.29,0.2934,0.2979,0.3002,0.3011,0.3076,0.3087,0.3059,0.3021,0.3077,0.3136,0.3149,0.299,0.2989,0.2989,0.2988,0,0,0.2484,0.2565,0.2571,0.26,0.267,0.2702,0.2764,0.2826,0.2872,0.2918,0.2978,0.3038,0.3047,0.307,0.3088,0.3116,0.3199,0.3111,0.3111,0.3159,0.3298,0.3301,0.3315,0.3183,0.3185,0.3186,0.3332,0,0.2504,0.2566,0.2607,0.267,0.2703,0.2753,0.2812,0.2871,0.2928,0.3002,0.3034,0.3108,0.3077,0.3116,0.3135,0.3196,0.3228,0.3164,0.3245,0.3248,0.3234,0.3328,0.326,0.3383,0.3344,0.3346,0.3347,0,0.2524,0.2561,0.2612,0.2692,0.2713,0.2754,0.2839,0.2907,0.3011,0.306,0.3116,0.3161,0.3233,0.3194,0.3284,0.3248,0.3273,0.3302,0.3308,0.3297,0.3273,0.3315,0.3406,0.3384,0.3366,0.3364,0.3363,0,0.2477,0.2565,0.2595,0.2623,0.2719,0.2748,0.2807,0.291,0.2975,0.3109,0.3167,0.3245,0.3301,0.3337,0.3393,0.3352,0.3497,0.3443,0.3468,0.3469,0.342,0.3414,0.3483,0.3492,0.3492,0.3492,0.3491,0,0.2472,0.2502,0.2573,0.259,0.2646,0.2723,0.2799,0.2884,0.3003,0.3085,0.3186,0.3269,0.3336,0.3423,0.3446,0.3517,0.3535,0.3501,0.351,0.3439,0.3433,0.3414,0.3378,0.3497,0.3496,0.3495,0.3494,0,0.2419,0.2467,0.2509,0.2591,0.2622,0.2661,0.2783,0.284,0.2972,0.3085,0.3133,0.3304,0.3437,0.3509,0.3613,0.3592,0.3585,0.3669,0.3602,0.36,0.3571,0.3538,0.3418,0.3312,0.3726,0.3727,0.3728,0,0.2396,0.2408,0.2485,0.2505,0.254,0.2611,0.266,0.2803,0.2867,0.31,0.3142,0.3338,0.3447,0.3635,0.369,0.3772,0.3634,0.3723,0.3612,0.3591,0.3562,0.3361,0.3264,0.3586,0.3586,0.3586,0.3585,0,0.2346,0.2367,0.2396,0.2435,0.2474,0.2535,0.2616,0.2662,0.2835,0.2949,0.3121,0.3249,0.348,0.3579,0.3715,0.3736,0.3579,0.3717,0.3705,0.3476,0.325,0.3146,0.3493,0.3583,0.3583,0.3583,0.3583,0.3583,0.2294,0.2296,0.2322,0.2362,0.2401,0.2435,0.2455,0.2551,0.2658,0.2814,0.3004,0.3174,0.3435,0.3641,0.3639,0.3675,0.3562,0.361,0.3586,0.3394,0.3234,0.3594,0.3676,0.3677,0.3677,0.3678,0.3679,0,0.222,0.2229,0.2251,0.228,0.2278,0.2338,0.2401,0.2407,0.2482,0.2703,0.2845,0.3141,0.3306,0.3481,0.3659,0.3588,0.335,0.3516,0.3234,0.3152,0.352,0.346,0.3488,0.3488,0.3488,0.3488,0.3488,0.3488,0.2176,0.2161,0.2177,0.2148,0.2162,0.2134,0.2145,0.2188,0.2316,0.2507,0.2699,0.2881,0.329,0.3586,0.3631,0.3539,0.3273,0.3145,0.3085,0.3411,0.3417,0.3423,0.336,0.3366,0.3366,0.2586,0.2581,0.2577]},{"header":{"parameterUnit":"m.s-1","parameterCategory":2,"la1":30.2991,"la2":30.254,"lo1":-89.0895,"lo2":-89.0444,"dy":0.0017,"dx":0.0017,"nx":28,"ny":28,"refTime":"2024-05-07T21:00:00:Z","depth":"0","parameterNumber":3,"parameterNumberName":"V-component_of_CURRENTS"},"data":[0,0,0,0,0,0,0,0,0,0,0,0,0,0,0,0,0,0,0,0,0,0,0,0,0,0,0,0,0,0,0,0,0,0,0,0,0,0,0,0,0,0,0,0,0,0,0,0,0,0,0,0,0,0,0,0,0,0,0.0082,0.0081,0,0.0014,0.0013,0.0012,-0.004,-0.004,-0.0041,-0.0041,-0.0158,-0.016,-0.0163,0,0,0,0,0,0,0,0,0,0,0,0,0,0.013,0.013,0.0082,0.0081,0.008,0.0014,0.0013,0.0012,-0.004,-0.004,-0.0041,-0.0041,-0.0157,-0.016,-0.0163,0,0,0,0,0,0,0,0,0,0,0,0,0,0.0089,0.0129,0.0082,0.0047,0.0044,0.0014,0.0013,0.0012,-0.004,-0.004,-0.0041,-0.0042,-0.0156,-0.016,-0.0164,-0.0178,0,0,-0.0176,-0.0178,0,0,0,0,0,0,0,0,0.0092,0.0088,0.0053,0.005,0.0045,-0.0004,-0.0013,-0.0054,-0.004,-0.0009,-0.0041,-0.0042,-0.011,-0.0118,-0.013,-0.0183,-0.0188,-0.0177,-0.0179,-0.0181,-0.0182,0,0,0,0,0,0,0,0.0095,0.009,0.0054,0.0052,0.0048,0.0023,0.0016,-0.0021,-0.0057,-0.0012,-0.0016,-0.0021,-0.0112,-0.0126,-0.0133,-0.019,-0.0176,-0.018,-0.0183,-0.0184,-0.025,-0.0249,0,0,0,0,0,0,0.0108,0.0093,0.0056,0.0052,0.0069,0.0023,0.0015,0.0011,-0.0056,-0.0066,-0.0021,-0.0023,-0.0119,-0.0128,-0.0138,-0.0144,-0.0181,-0.0185,-0.0187,-0.0251,-0.025,-0.0249,0,0,0,0,0,0,0.0109,0.0105,0.0059,0.0071,0.0064,0.0023,0.0018,0.001,-0.0002,-0.0062,-0.0073,-0.0024,-0.0119,-0.0132,-0.0158,-0.0149,-0.0187,-0.019,-0.0252,-0.025,-0.0249,-0.0165,0,0,0,0,0,0,0.0111,0.0106,0.011,0.0073,0.0064,0.0052,0.0019,0.0009,-0.0004,-0.0008,-0.0069,-0.008,-0.0121,-0.0151,-0.0162,-0.0156,-0.0194,-0.0253,-0.0251,-0.025,-0.0169,-0.0162,-0.0155,0,0,0,0,0,0.0113,0.0124,0.0111,0.0106,0.007,0.0053,0.0046,0.0014,-0.0003,-0.0001,-0.0038,-0.0078,-0.0151,-0.0154,-0.0167,-0.0161,-0.0253,-0.0252,-0.025,-0.0172,-0.0163,-0.0155,0,0,0,0,0,0,0.0148,0.0119,0.0103,0.0105,0.0085,0.0045,0.0044,0.0021,-0.0007,-0.0011,-0.0069,-0.0083,-0.0104,-0.0141,-0.0143,-0.0175,-0.0209,-0.0209,-0.0145,-0.0137,-0.013,-0.0107,-0.0197,0,0,0,0,0,0.0158,0.0157,0.0126,0.0128,0.0121,0.0084,0.0073,0.0053,0.0022,0.0009,-0.0031,-0.0073,-0.0107,-0.0127,-0.0163,-0.018,-0.0212,-0.0185,-0.0178,-0.0171,-0.016,-0.0202,-0.0197,-0.0244,-0.0244,-0.0244,0,0,0.0172,0.0157,0.0155,0.0135,0.0116,0.0119,0.0076,0.0068,0.007,0.0001,-0.0008,-0.0051,-0.0105,-0.0123,-0.0136,-0.0153,-0.0172,-0.0169,-0.0164,-0.0156,-0.02,-0.0195,-0.0191,-0.0243,-0.0243,-0.0243,0,0,0.0206,0.0187,0.02,0.0189,0.0169,0.0148,0.015,0.0117,0.0101,0.0088,0.004,0.0008,-0.0042,-0.0078,-0.0104,-0.008,-0.0133,-0.0093,-0.0042,-0.0082,-0.0079,-0.0076,-0.0098,-0.0098,-0.0091,-0.009,-0.009,0,0.0225,0.0236,0.0203,0.0215,0.0214,0.0167,0.0186,0.0166,0.0129,0.0124,0.0098,0.0033,-0.002,-0.0041,-0.0036,-0.0065,-0.0088,-0.0069,-0.0072,-0.0071,-0.0069,-0.0093,-0.0094,-0.0086,-0.0087,-0.0087,-0.0088,0,0.027,0.0278,0.0287,0.0286,0.0282,0.0289,0.0261,0.0254,0.0229,0.0205,0.0183,0.0116,0.0078,0.0053,0.0013,-0.0001,-0.002,-0.0058,-0.0091,-0.006,-0.0086,-0.0089,-0.008,-0.0082,-0.0083,-0.0084,0,0,0.0311,0.0318,0.032,0.0336,0.0321,0.0324,0.0331,0.0325,0.0339,0.0291,0.0304,0.0229,0.0192,0.0161,0.0103,0.0064,0.0046,0.0014,0.001,-0.0001,-0.0026,-0.004,-0.0045,0.0007,0.0007,0.0007,-0.0043,0,0.0356,0.0399,0.0387,0.0428,0.0448,0.0417,0.0434,0.0421,0.0399,0.04,0.0329,0.0316,0.0233,0.0222,0.0168,0.008,0.0041,0.0064,-0.006,-0.0063,-0.0075,-0.0048,-0.0046,-0.009,-0.0046,-0.0047,-0.0047,0,0.0406,0.0428,0.0477,0.0507,0.0514,0.0532,0.0551,0.0561,0.0543,0.0529,0.0494,0.0441,0.0383,0.0309,0.0174,0.0194,0.0095,0.002,0.0015,-0.0029,-0.0082,-0.0119,-0.0098,-0.0267,-0.0052,-0.0051,-0.0051,0,0.0456,0.0493,0.0536,0.0543,0.0566,0.0589,0.0606,0.0604,0.0636,0.0619,0.0643,0.0548,0.0527,0.0385,0.0225,0.02,0.0083,0.0023,-0.0082,-0.0083,-0.0121,-0.0126,-0.0275,-0.0072,-0.0071,-0.0071,-0.0071,0,0.0509,0.0543,0.0565,0.0589,0.0656,0.0651,0.0723,0.0722,0.0752,0.0816,0.0719,0.0752,0.0545,0.0451,0.0277,0.0105,0.0117,-0.006,-0.0096,-0.009,-0.0091,-0.0274,-0.0396,-0.0073,-0.0073,-0.0072,-0.0072,0,0.0554,0.0565,0.0621,0.066,0.0682,0.0733,0.0817,0.0871,0.0884,0.0968,0.0977,0.0913,0.0788,0.0576,0.036,0.0195,-0.0096,-0.0052,-0.0019,-0.0051,-0.0319,-0.0437,-0.063,-0.0728,-0.0179,-0.0179,-0.018,0,0.058,0.0613,0.0678,0.0725,0.0749,0.0827,0.0892,0.0934,0.1008,0.1081,0.1136,0.1053,0.1023,0.0705,0.0375,0.0076,-0.0113,-0.0106,-0.0168,-0.0322,-0.0481,-0.0553,-0.0626,-0.0183,-0.0183,-0.0184,-0.0184,0,0.0634,0.0654,0.0702,0.0801,0.0877,0.0974,0.1075,0.1156,0.1228,0.1311,0.1406,0.1396,0.1091,0.0801,0.0385,0.0158,-0.0246,-0.0124,-0.0303,-0.0507,-0.0578,-0.0691,-0.0152,-0.0188,-0.0187,-0.0187,-0.0187,-0.0187,0.0674,0.0722,0.0791,0.0886,0.0981,0.1113,0.1214,0.1338,0.1485,0.1628,0.1604,0.1639,0.1212,0.0637,0.03,-0.0278,-0.0306,-0.0442,-0.0571,-0.0627,-0.0729,-0.0182,-0.0251,-0.0251,-0.0251,-0.0251,-0.0251,0,0.0723,0.078,0.0874,0.0997,0.1113,0.1155,0.133,0.1449,0.1641,0.1784,0.1866,0.1705,0.1151,0.0594,-0.0188,-0.0611,-0.0788,-0.0852,-0.0968,-0.1024,-0.0548,-0.0554,-0.0668,-0.0668,-0.0668,-0.0667,-0.0667,-0.0667,0.0752,0.0843,0.0894,0.1085,0.118,0.135,0.1458,0.1643,0.179,0.1995,0.2056,0.2054,0.1697,0.0216,-0.0748,-0.101,-0.1322,-0.1408,-0.156,-0.1249,-0.122,-0.1193,-0.1225,-0.1478,-0.1479,-0.1961,-0.1967,-0.1971]}],[{"header":{"parameterUnit":"m.s-1","parameterCategory":2,"la1":30.2991,"la2":30.254,"lo1":-89.0895,"lo2":-89.0444,"dy":0.0017,"dx":0.0017,"nx":28,"ny":28,"refTime":"2024-05-07T21:00:00:Z","depth":"2","parameterNumber":2,"parameterNumberName":"U-component_of_CURRENTS"},"data":[0,0,0,0,0,0,0,0,0,0,0,0,0,0,0,0,0,0,0,0,0,0,0,0,0,0,0,0,0,0,0,0,0,0,0,0,0,0,0,0,0,0,0,0,0,0,0,0,0,0,0,0,0,0,0,0,0,0,0.2417,0.2418,0,0.2483,0.2484,0.2484,0.2488,0.2487,0.2486,0.2486,0.2549,0.2551,0.2554,0,0,0,0,0,0,0,0,0,0,0,0,0,0.2336,0.2337,0.2417,0.2418,0.2419,0.2483,0.2484,0.2485,0.2488,0.2487,0.2486,0.2485,0.2548,0.2551,0.2554,0,0,0,0,0,0,0,0,0,0,0,0,0,0.2383,0.2337,0.2417,0.2428,0.243,0.2483,0.2484,0.2485,0.2488,0.2487,0.2486,0.2485,0.2547,0.2551,0.2554,0.2597,0,0,0.2565,0.2567,0,0,0,0,0,0,0,0,0.238,0.2386,0.2426,0.2428,0.243,0.2477,0.2479,0.2523,0.2488,0.2465,0.2486,0.2484,0.2526,0.2531,0.2545,0.26,0.2603,0.2565,0.2567,0.2569,0.257,0,0,0,0,0,0,0,0.2377,0.2383,0.2442,0.2427,0.2429,0.2445,0.245,0.2487,0.25,0.2467,0.2468,0.2477,0.2527,0.2541,0.2546,0.2604,0.2565,0.2568,0.2571,0.2572,0.273,0.2732,0,0,0,0,0,0,0.2369,0.238,0.244,0.2444,0.2403,0.2447,0.2453,0.2462,0.25,0.2505,0.2478,0.2477,0.2536,0.2542,0.2549,0.2633,0.2569,0.2572,0.2574,0.2728,0.2731,0.2733,0,0,0,0,0,0,0.2367,0.2374,0.2437,0.2414,0.2423,0.245,0.246,0.2464,0.2485,0.2508,0.2512,0.2494,0.2535,0.2544,0.2594,0.2634,0.2574,0.2577,0.2726,0.2729,0.2732,0.2781,0,0,0,0,0,0,0.2365,0.2373,0.2382,0.2414,0.2424,0.2481,0.2461,0.2466,0.2492,0.2491,0.2524,0.2528,0.2535,0.2589,0.2598,0.2637,0.258,0.2723,0.2727,0.2731,0.2776,0.2785,0.2793,0,0,0,0,0,0.2362,0.2377,0.2382,0.239,0.2435,0.2482,0.249,0.2504,0.2493,0.2516,0.2535,0.2528,0.262,0.2594,0.2604,0.2645,0.2721,0.2726,0.273,0.2773,0.2783,0.2792,0,0,0,0,0,0,0.2349,0.238,0.2386,0.2411,0.245,0.2483,0.2505,0.2513,0.2546,0.2545,0.2555,0.2563,0.2625,0.2631,0.2601,0.2703,0.267,0.2677,0.2699,0.2709,0.2717,0.2701,0.2583,0,0,0,0,0,0.2351,0.237,0.2407,0.243,0.2449,0.2479,0.25,0.2514,0.2545,0.2558,0.2581,0.2611,0.2654,0.2675,0.2712,0.2767,0.2768,0.2801,0.2809,0.2816,0.2811,0.2832,0.2841,0.2748,0.2748,0.2748,0,0,0.2351,0.2373,0.2383,0.2429,0.2457,0.2497,0.249,0.253,0.2565,0.2562,0.2616,0.2644,0.2677,0.274,0.2768,0.2747,0.2852,0.2822,0.2827,0.2818,0.2838,0.2846,0.2854,0.2751,0.2751,0.275,0,0,0.2368,0.2385,0.2409,0.2445,0.2493,0.2516,0.253,0.2575,0.2598,0.2658,0.2666,0.2708,0.2776,0.2801,0.2823,0.2898,0.2897,0.2923,0.2948,0.2969,0.2976,0.2982,0.3027,0.3036,0.2922,0.2922,0.2922,0,0.2368,0.2402,0.2427,0.2466,0.2494,0.2525,0.2563,0.2602,0.2658,0.2685,0.2682,0.2777,0.2802,0.2869,0.2899,0.2915,0.2935,0.2906,0.2977,0.2983,0.2988,0.3032,0.3042,0.2925,0.2925,0.2925,0.2924,0,0.2406,0.2437,0.2458,0.2512,0.2548,0.259,0.2641,0.2681,0.2709,0.2746,0.282,0.2853,0.2902,0.2929,0.2941,0.3003,0.3011,0.2986,0.2945,0.3,0.3044,0.3053,0.2929,0.2928,0.2928,0.2927,0,0,0.2389,0.2467,0.2474,0.2503,0.2574,0.2606,0.267,0.2737,0.2784,0.2834,0.2893,0.2961,0.2972,0.2997,0.3016,0.3036,0.3106,0.3034,0.3033,0.3066,0.3181,0.3168,0.3177,0.3095,0.3096,0.3097,0.3207,0,0.2411,0.2473,0.2512,0.2576,0.261,0.266,0.272,0.2784,0.2844,0.2915,0.2948,0.3023,0.3003,0.3042,0.3055,0.3105,0.3129,0.308,0.3133,0.3135,0.3105,0.3185,0.2953,0.3029,0.3216,0.3217,0.3218,0,0.2431,0.2469,0.2523,0.2602,0.2624,0.2666,0.2754,0.2821,0.2924,0.2976,0.3032,0.3076,0.3139,0.3104,0.3176,0.3151,0.3169,0.3186,0.319,0.3159,0.3138,0.3,0.3038,0.3233,0.3232,0.3231,0.323,0,0.2389,0.2476,0.2512,0.254,0.2635,0.2667,0.2726,0.2829,0.2896,0.3022,0.3078,0.315,0.32,0.3222,0.3269,0.3235,0.3343,0.3294,0.3294,0.3294,0.3095,0.3075,0.3325,0.3325,0.3325,0.3325,0.3324,0,0.2385,0.2419,0.2494,0.2512,0.2571,0.2648,0.2726,0.2808,0.2922,0.3002,0.31,0.317,0.323,0.3299,0.3311,0.3352,0.3376,0.3318,0.3322,0.3112,0.3094,0.3255,0.3245,0.3329,0.3328,0.3327,0.3326,0,0.2334,0.2385,0.2431,0.2518,0.2549,0.2591,0.2713,0.2769,0.2898,0.3002,0.3048,0.3205,0.3312,0.337,0.3445,0.3413,0.3453,0.3452,0.3223,0.3198,0.3379,0.3371,0.3463,0.3463,0.3463,0.3464,0.3464,0,0.2314,0.2328,0.241,0.2433,0.247,0.2545,0.2594,0.2736,0.2797,0.3013,0.3047,0.3219,0.33,0.3436,0.3454,0.3497,0.3503,0.3282,0.3157,0.3398,0.3394,0.3385,0.3377,0.2927,0.2923,0.292,0.2917,0,0.2267,0.229,0.2321,0.2365,0.2408,0.247,0.255,0.2595,0.2762,0.286,0.3006,0.3106,0.3274,0.3245,0.3333,0.3308,0.3259,0.3216,0.3524,0.2935,0.2904,0.2896,0.2903,0.2887,0.289,0.2892,0.2894,0.2895,0.2221,0.2223,0.2252,0.2294,0.2337,0.2373,0.2391,0.2476,0.2567,0.2684,0.2852,0.2925,0.3015,0.3048,0.299,0.2967,0.3172,0.3011,0.3016,0.3027,0.2952,0.2923,0.2898,0.2901,0.2903,0.2905,0.2907,0,0.2149,0.2159,0.2183,0.2216,0.2216,0.2281,0.2338,0.233,0.2376,0.2527,0.262,0.2485,0.2523,0.2609,0.2554,0.2584,0.2495,0.2458,0.2315,0.2351,0.2382,0.2267,0.2035,0.2031,0.2028,0.2025,0,0,0.2109,0.2092,0.2104,0.2081,0.2104,0.2076,0.2085,0.2093,0.2166,0.2172,0.221,0.2421,0.2567,0.2258,0.225,0.2137,0.2206,0.2053,0.2771,0.2643,0.2668,0.2745,0.2617,0,0,0,0,0]},{"header":{"parameterUnit":"m.s-1","parameterCategory":2,"la1":30.2991,"la2":30.254,"lo1":-89.0895,"lo2":-89.0444,"dy":0.0017,"dx":0.0017,"nx":28,"ny":28,"refTime":"2024-05-07T21:00:00:Z","depth":"2","parameterNumber":3,"parameterNumberName":"V-component_of_CURRENTS"},"data":[0,0,0,0,0,0,0,0,0,0,0,0,0,0,0,0,0,0,0,0,0,0,0,0,0,0,0,0,0,0,0,0,0,0,0,0,0,0,0,0,0,0,0,0,0,0,0,0,0,0,0,0,0,0,0,0,0,0,-0.0014,-0.0015,0,-0.008,-0.0081,-0.0082,-0.0129,-0.013,-0.013,-0.013,-0.0241,-0.0244,-0.0247,0,0,0,0,0,0,0,0,0,0,0,0,0,0.0033,0.0033,-0.0014,-0.0015,-0.0015,-0.008,-0.0081,-0.0082,-0.0129,-0.013,-0.013,-0.013,-0.0241,-0.0244,-0.0247,0,0,0,0,0,0,0,0,0,0,0,0,0,-0.0007,0.0033,-0.0014,-0.0046,-0.0049,-0.008,-0.0081,-0.0083,-0.0129,-0.013,-0.013,-0.0131,-0.024,-0.0243,-0.0247,-0.0264,0,0,-0.026,-0.0261,0,0,0,0,0,0,0,0,-0.0004,-0.0008,-0.004,-0.0044,-0.0048,-0.0096,-0.0105,-0.0145,-0.0129,-0.01,-0.013,-0.0131,-0.0196,-0.0204,-0.0216,-0.0269,-0.0274,-0.026,-0.0263,-0.0264,-0.0265,0,0,0,0,0,0,0,-0.0001,-0.0006,-0.0041,-0.0041,-0.0046,-0.007,-0.0076,-0.0113,-0.0146,-0.0103,-0.0106,-0.0112,-0.0199,-0.0212,-0.0219,-0.0275,-0.026,-0.0264,-0.0266,-0.0268,-0.0333,-0.0332,0,0,0,0,0,0,0.0011,-0.0003,-0.0039,-0.0043,-0.0025,-0.0071,-0.0077,-0.0081,-0.0145,-0.0155,-0.0111,-0.0114,-0.0205,-0.0214,-0.0223,-0.0227,-0.0264,-0.0268,-0.027,-0.0334,-0.0333,-0.0332,0,0,0,0,0,0,0.0013,0.0009,-0.0036,-0.0024,-0.0031,-0.0071,-0.0075,-0.0082,-0.0093,-0.0151,-0.0162,-0.0113,-0.0206,-0.0218,-0.0243,-0.0233,-0.027,-0.0274,-0.0335,-0.0333,-0.0333,-0.0248,0,0,0,0,0,0,0.0014,0.001,0.0014,-0.0023,-0.0032,-0.0044,-0.0074,-0.0083,-0.0095,-0.0099,-0.0157,-0.0168,-0.0207,-0.0237,-0.0247,-0.0239,-0.0277,-0.0335,-0.0334,-0.0333,-0.0251,-0.0244,-0.0237,0,0,0,0,0,0.0016,0.0026,0.0015,0.001,-0.0025,-0.0043,-0.005,-0.008,-0.0094,-0.0093,-0.0128,-0.0166,-0.0236,-0.0239,-0.0252,-0.0244,-0.0336,-0.0334,-0.0333,-0.0254,-0.0245,-0.0238,0,0,0,0,0,0,0.0049,0.0021,0.0008,0.0008,-0.0011,-0.0051,-0.0052,-0.0073,-0.0099,-0.0102,-0.0158,-0.0171,-0.019,-0.0227,-0.0229,-0.0259,-0.0292,-0.0293,-0.0228,-0.022,-0.0213,-0.0192,-0.028,0,0,0,0,0,0.0059,0.0058,0.0028,0.003,0.0023,-0.0012,-0.0023,-0.0042,-0.0071,-0.0083,-0.0122,-0.0162,-0.0194,-0.0213,-0.0248,-0.0265,-0.0301,-0.0268,-0.0261,-0.0255,-0.0246,-0.0292,-0.0288,-0.0327,-0.0327,-0.0327,0,0,0.0072,0.0057,0.0056,0.0037,0.0018,0.002,-0.002,-0.0028,-0.0025,-0.0092,-0.0099,-0.014,-0.0192,-0.0209,-0.0221,-0.0238,-0.0261,-0.0253,-0.0247,-0.0241,-0.029,-0.0286,-0.0283,-0.0326,-0.0326,-0.0326,0,0,0.0103,0.0086,0.0098,0.0088,0.0069,0.0048,0.0051,0.0019,0.0006,-0.0006,-0.0052,-0.0082,-0.013,-0.0165,-0.019,-0.0166,-0.0222,-0.0178,-0.0128,-0.0172,-0.017,-0.0168,-0.0198,-0.02,-0.0175,-0.0175,-0.0175,0,0.0121,0.0131,0.01,0.0111,0.0111,0.0067,0.0086,0.0066,0.0032,0.0027,0.0005,-0.006,-0.0109,-0.0131,-0.0123,-0.0151,-0.0179,-0.0154,-0.0163,-0.0162,-0.0161,-0.0194,-0.0196,-0.017,-0.0171,-0.0171,-0.0172,0,0.0162,0.017,0.0178,0.0179,0.0175,0.0182,0.0156,0.0151,0.0129,0.0107,0.0085,0.0021,-0.0016,-0.0039,-0.0076,-0.0092,-0.0113,-0.0148,-0.0182,-0.0152,-0.0188,-0.0192,-0.0164,-0.0166,-0.0167,-0.0168,0,0,0.02,0.0207,0.021,0.0226,0.0213,0.0216,0.0224,0.0219,0.0232,0.0187,0.0197,0.0129,0.0095,0.0065,0.001,-0.0032,-0.0057,-0.0079,-0.0084,-0.0104,-0.0142,-0.0162,-0.0169,-0.0092,-0.0093,-0.0093,-0.0165,0,0.0243,0.0284,0.0273,0.0313,0.0333,0.0305,0.0321,0.031,0.029,0.0288,0.022,0.0207,0.0134,0.0124,0.0069,-0.0023,-0.0065,-0.0033,-0.0172,-0.0176,-0.0194,-0.0174,-0.0153,-0.0216,-0.017,-0.0171,-0.0171,0,0.0289,0.0311,0.0359,0.0388,0.0395,0.0415,0.0434,0.0443,0.0424,0.0411,0.0377,0.0325,0.0264,0.0199,0.0056,0.0081,-0.0017,-0.0096,-0.0102,-0.0152,-0.0204,-0.0242,-0.0227,-0.0179,-0.0178,-0.0178,-0.0177,0,0.0337,0.0373,0.0416,0.0424,0.0447,0.0471,0.0488,0.0486,0.0516,0.0496,0.0514,0.042,0.0394,0.0253,0.0091,0.0074,-0.0066,-0.0116,-0.0226,-0.0229,-0.0255,-0.0259,-0.0215,-0.0214,-0.0214,-0.0214,-0.0214,0,0.0387,0.0421,0.0446,0.0469,0.0535,0.0532,0.0601,0.06,0.0626,0.0681,0.0589,0.0605,0.0407,0.0303,0.0133,-0.005,-0.0038,-0.021,-0.0248,-0.0224,-0.0224,-0.0231,-0.0231,-0.0217,-0.0216,-0.0216,-0.0215,0,0.0429,0.0442,0.0498,0.0539,0.056,0.0611,0.0693,0.0743,0.0754,0.0822,0.0829,0.0751,0.0612,0.0405,0.0182,0.0022,-0.0164,-0.0232,-0.0181,-0.0213,-0.0308,-0.0304,-0.0367,-0.0368,-0.0369,-0.037,-0.0371,0,0.0454,0.0486,0.0553,0.0601,0.0625,0.0703,0.0765,0.0805,0.087,0.0917,0.0959,0.0861,0.0797,0.0464,0.0164,-0.0129,-0.0164,-0.0293,-0.0334,-0.0292,-0.0324,-0.0318,-0.0312,-0.0334,-0.0334,-0.0335,-0.0335,0,0.0503,0.0526,0.0572,0.0672,0.0746,0.0839,0.0934,0.1004,0.1064,0.1121,0.1171,0.1126,0.082,0.0524,0.013,-0.0072,-0.025,-0.031,-0.0282,-0.0295,-0.0266,-0.0296,-0.029,-0.0338,-0.0338,-0.0337,-0.0337,-0.0337,0.0542,0.0587,0.0655,0.0749,0.0843,0.0966,0.1057,0.1155,0.1271,0.1358,0.1313,0.1258,0.0923,0.0414,0.0069,-0.028,-0.0273,-0.0397,-0.0394,-0.0391,-0.0371,-0.0346,-0.0428,-0.0428,-0.0428,-0.0428,-0.0428,0,0.0585,0.0639,0.0731,0.085,0.0962,0.101,0.1162,0.1249,0.1386,0.1455,0.1479,0.1167,0.0835,0.0467,-0.0054,-0.0377,-0.0404,-0.0471,-0.0432,-0.0427,-0.0423,-0.0403,-0.0469,-0.047,-0.0471,-0.0472,0,0,0.0611,0.0692,0.0738,0.0922,0.1024,0.1179,0.1273,0.1394,0.1476,0.1523,0.1503,0.1411,0.0964,0.0582,0.0137,-0.0155,-0.0214,-0.0218,-0.0153,-0.0049,-0.0041,-0.0352,-0.0311,0,0,0,0,0]}],[{"header":{"parameterUnit":"m.s-1","parameterCategory":2,"la1":30.2991,"la2":30.254,"lo1":-89.0895,"lo2":-89.0444,"dy":0.0017,"dx":0.0017,"nx":28,"ny":28,"refTime":"2024-05-07T21:00:00:Z","depth":"4","parameterNumber":2,"parameterNumberName":"U-component_of_CURRENTS"},"data":[0,0,0,0,0,0,0,0,0,0,0,0,0,0,0,0,0,0,0,0,0,0,0,0,0,0,0,0,0,0,0,0,0,0,0,0,0,0,0,0,0,0,0,0,0,0,0,0,0,0,0,0,0,0,0,0,0,0,0.1532,0.1533,0,0.157,0.157,0.157,0.162,0.1621,0.1622,0.1623,0.166,0.166,0.166,0,0,0,0,0,0,0,0,0,0,0,0,0,0.1443,0.1444,0.1532,0.1533,0.1534,0.157,0.157,0.157,0.162,0.1621,0.1622,0.1624,0.166,0.166,0.166,0,0,0,0,0,0,0,0,0,0,0,0,0,0.1477,0.1445,0.1532,0.1566,0.1569,0.1569,0.157,0.157,0.1619,0.1621,0.1623,0.1625,0.166,0.166,0.166,0.1623,0,0,0.1659,0.1659,0,0,0,0,0,0,0,0,0.1475,0.148,0.156,0.1563,0.1568,0.1595,0.1552,0.1589,0.1619,0.1596,0.1623,0.1625,0.1639,0.1641,0.1638,0.1624,0.1626,0.1659,0.1659,0.1659,0.1659,0,0,0,0,0,0,0,0.1473,0.1478,0.1543,0.1561,0.1565,0.1559,0.1565,0.1558,0.1604,0.1598,0.1603,0.1613,0.1641,0.1638,0.164,0.1626,0.1659,0.1659,0.1659,0.1659,0.1739,0.1741,0,0,0,0,0,0,0.1478,0.1476,0.1542,0.1544,0.1529,0.1559,0.1567,0.1581,0.1605,0.1611,0.1611,0.1615,0.1638,0.164,0.1641,0.1709,0.1659,0.1659,0.1658,0.1737,0.1739,0.1742,0,0,0,0,0,0,0.1476,0.1483,0.154,0.1514,0.1521,0.156,0.1575,0.1581,0.1616,0.1615,0.1621,0.1644,0.1639,0.1642,0.1677,0.1707,0.1658,0.1658,0.1734,0.1738,0.1741,0.1774,0,0,0,0,0,0,0.1473,0.1482,0.1505,0.1515,0.1523,0.1561,0.1574,0.1581,0.1618,0.1625,0.1644,0.1648,0.1641,0.1677,0.1676,0.1706,0.1658,0.1731,0.1736,0.174,0.177,0.1779,0.1785,0,0,0,0,0,0.1469,0.1488,0.1506,0.1515,0.155,0.1561,0.1565,0.1594,0.1619,0.1632,0.166,0.1649,0.1705,0.1678,0.1677,0.1707,0.1729,0.1734,0.1739,0.1767,0.1777,0.1785,0,0,0,0,0,0,0.1461,0.1496,0.1516,0.1546,0.1564,0.1572,0.1593,0.1611,0.1641,0.1661,0.1662,0.1667,0.1708,0.1709,0.168,0.1749,0.1721,0.1726,0.1742,0.1752,0.1759,0.1773,0.1658,0,0,0,0,0,0.1469,0.1498,0.1521,0.1548,0.1561,0.1583,0.1598,0.1618,0.164,0.1657,0.1674,0.1702,0.1719,0.1739,0.1747,0.1776,0.179,0.1804,0.1811,0.1817,0.1833,0.1877,0.1889,0.1759,0.1758,0.1758,0,0,0.1473,0.1499,0.1516,0.1549,0.1568,0.1585,0.1596,0.1628,0.165,0.1653,0.1701,0.1719,0.1732,0.1768,0.1789,0.1779,0.1864,0.1824,0.1828,0.1841,0.1884,0.1896,0.1907,0.1762,0.1761,0.1761,0,0,0.1478,0.152,0.1539,0.156,0.1599,0.1608,0.1626,0.1654,0.1681,0.1721,0.1734,0.1782,0.1807,0.1828,0.1838,0.1896,0.1894,0.1907,0.1961,0.2004,0.2014,0.2024,0.2058,0.207,0.192,0.192,0.192,0,0.1482,0.1513,0.1544,0.1567,0.159,0.1623,0.1642,0.1664,0.1705,0.1729,0.175,0.1827,0.1836,0.1885,0.1916,0.191,0.1935,0.1917,0.2011,0.2021,0.203,0.2063,0.2076,0.1922,0.1922,0.1922,0.1921,0,0.1491,0.1529,0.1543,0.1586,0.1611,0.1635,0.1669,0.171,0.1754,0.1774,0.1847,0.1882,0.1937,0.195,0.1952,0.2027,0.2023,0.2004,0.1981,0.2045,0.2076,0.2089,0.1925,0.1924,0.1924,0.1923,0,0,0.1456,0.1533,0.1541,0.1571,0.1627,0.1644,0.1695,0.1735,0.1784,0.1841,0.1909,0.1961,0.2003,0.2022,0.2043,0.2092,0.2175,0.209,0.2091,0.2111,0.2277,0.2141,0.2141,0.2175,0.2177,0.2179,0.2272,0,0.1452,0.1494,0.1538,0.1585,0.1607,0.1669,0.1709,0.1759,0.1819,0.1892,0.195,0.2023,0.2021,0.2082,0.2126,0.2164,0.2213,0.2152,0.2224,0.2226,0.2086,0.2152,0.2187,0.2281,0.2284,0.2286,0.2288,0,0.144,0.1472,0.1516,0.1593,0.1611,0.1651,0.1742,0.1787,0.1884,0.1945,0.2035,0.2085,0.2182,0.2177,0.228,0.2246,0.2276,0.2298,0.2301,0.2172,0.2114,0.2207,0.2311,0.2309,0.2308,0.2306,0.2305,0,0.1383,0.1457,0.1495,0.1523,0.161,0.1658,0.1711,0.1804,0.186,0.2001,0.2075,0.2172,0.2257,0.2311,0.2364,0.2342,0.2463,0.2427,0.233,0.2321,0.2398,0.2387,0.2503,0.2503,0.2503,0.2503,0.2503,0,0.1349,0.1384,0.1483,0.1503,0.1562,0.1639,0.1726,0.18,0.1922,0.199,0.211,0.219,0.2301,0.2374,0.24,0.2403,0.2493,0.2355,0.234,0.2411,0.2401,0.2407,0.2395,0.2506,0.2506,0.2505,0.2504,0,0.1285,0.1349,0.14,0.1501,0.154,0.1588,0.1727,0.1783,0.192,0.2028,0.2086,0.2232,0.2331,0.2407,0.2504,0.244,0.2463,0.2441,0.2528,0.2513,0.2286,0.2274,0.2342,0.2338,0.2335,0.2332,0.233,0,0.1247,0.1273,0.1386,0.1421,0.1476,0.157,0.1625,0.1768,0.1831,0.2029,0.206,0.2219,0.2301,0.2322,0.2413,0.2455,0.2427,0.2418,0.2339,0.2293,0.2273,0.2266,0.226,0.2325,0.2324,0.2323,0.2322,0,0.118,0.1243,0.1282,0.1349,0.1417,0.1491,0.1586,0.1617,0.178,0.1927,0.2003,0.2071,0.2174,0.2241,0.2293,0.2313,0.241,0.2383,0.2389,0.2314,0.2273,0.2254,0.2251,0.231,0.2312,0.2313,0.2314,0,0.1129,0.1144,0.1208,0.1262,0.1337,0.1373,0.1443,0.1518,0.16,0.1806,0.1829,0.1999,0.2144,0.2169,0.2215,0.2229,0.2198,0.2118,0.2137,0.2151,0.2045,0.1962,0.1906,0,0,0,0,0,0.1063,0.1072,0.1114,0.1162,0.1233,0.1286,0.1392,0.1468,0.1624,0.163,0.1725,0.1817,0.1907,0.1995,0.1975,0.2135,0.2201,0.2102,0.2115,0.2246,0.226,0.2153,0,0,0,0,0,0,0.1016,0.1045,0.1074,0.107,0.1091,0.116,0.1223,0.133,0.1343,0.1512,0.157,0.1716,0.1828,0.1908,0.1946,0.1973,0.1945,0.2214,0.221,0.2239,0.2251,0.2262,0.2157,0,0,0,0,0]},{"header":{"parameterUnit":"m.s-1","parameterCategory":2,"la1":30.2991,"la2":30.254,"lo1":-89.0895,"lo2":-89.0444,"dy":0.0017,"dx":0.0017,"nx":28,"ny":28,"refTime":"2024-05-07T21:00:00:Z","depth":"4","parameterNumber":3,"parameterNumberName":"V-component_of_CURRENTS"},"data":[0,0,0,0,0,0,0,0,0,0,0,0,0,0,0,0,0,0,0,0,0,0,0,0,0,0,0,0,0,0,0,0,0,0,0,0,0,0,0,0,0,0,0,0,0,0,0,0,0,0,0,0,0,0,0,0,0,0,-0.0058,-0.0059,0,-0.0101,-0.0101,-0.0102,-0.0136,-0.0136,-0.0136,-0.0137,-0.0199,-0.02,-0.0202,0,0,0,0,0,0,0,0,0,0,0,0,0,-0.0036,-0.0037,-0.0058,-0.0059,-0.0059,-0.0101,-0.0101,-0.0102,-0.0136,-0.0136,-0.0137,-0.0137,-0.0199,-0.02,-0.0202,0,0,0,0,0,0,0,0,0,0,0,0,0,-0.0059,-0.0037,-0.0058,-0.0081,-0.0083,-0.0101,-0.0101,-0.0102,-0.0136,-0.0136,-0.0137,-0.0137,-0.0198,-0.02,-0.0202,-0.0206,0,0,-0.0208,-0.0209,0,0,0,0,0,0,0,0,-0.0058,-0.006,-0.0077,-0.0079,-0.0082,-0.0113,-0.0117,-0.0138,-0.0136,-0.0116,-0.0137,-0.0137,-0.0172,-0.0176,-0.0183,-0.0209,-0.0211,-0.0209,-0.021,-0.0211,-0.0211,0,0,0,0,0,0,0,-0.0056,-0.0059,-0.0075,-0.0077,-0.008,-0.0099,-0.0103,-0.0121,-0.0141,-0.0118,-0.012,-0.0124,-0.0173,-0.0181,-0.0185,-0.0212,-0.0209,-0.021,-0.0212,-0.0212,-0.0247,-0.0247,0,0,0,0,0,0,-0.0048,-0.0057,-0.0074,-0.0077,-0.007,-0.0099,-0.0103,-0.0103,-0.0141,-0.0147,-0.0124,-0.0126,-0.0177,-0.0182,-0.0187,-0.0188,-0.0211,-0.0213,-0.0214,-0.0248,-0.0247,-0.0247,0,0,0,0,0,0,-0.0047,-0.0049,-0.0072,-0.0068,-0.0072,-0.0099,-0.0098,-0.0104,-0.0113,-0.0145,-0.0152,-0.0128,-0.0178,-0.0184,-0.0199,-0.019,-0.0214,-0.0215,-0.0248,-0.0248,-0.0247,-0.0192,0,0,0,0,0,0,-0.0047,-0.0048,-0.0045,-0.0067,-0.0072,-0.0077,-0.0098,-0.0104,-0.0114,-0.0117,-0.0151,-0.0157,-0.0179,-0.0196,-0.0201,-0.0194,-0.0217,-0.0248,-0.0248,-0.0247,-0.0194,-0.019,-0.0186,0,0,0,0,0,-0.0046,-0.0038,-0.0045,-0.0047,-0.0067,-0.0077,-0.0081,-0.0102,-0.0114,-0.0113,-0.0136,-0.0156,-0.0196,-0.0197,-0.0204,-0.0196,-0.0249,-0.0248,-0.0247,-0.0196,-0.0191,-0.0186,0,0,0,0,0,0,-0.0028,-0.0042,-0.0049,-0.0047,-0.0058,-0.0082,-0.0084,-0.0099,-0.0116,-0.012,-0.0152,-0.0159,-0.0169,-0.019,-0.0191,-0.0205,-0.0226,-0.0227,-0.0185,-0.018,-0.0176,-0.0167,-0.0219,0,0,0,0,0,-0.0022,-0.002,-0.0036,-0.0034,-0.0038,-0.006,-0.0067,-0.008,-0.0099,-0.0107,-0.013,-0.0154,-0.0171,-0.0181,-0.02,-0.0207,-0.0241,-0.0208,-0.0204,-0.02,-0.0197,-0.0244,-0.0244,-0.0245,-0.0245,-0.0245,0,0,-0.0015,-0.0022,-0.0021,-0.003,-0.0041,-0.0038,-0.0065,-0.0072,-0.0069,-0.0111,-0.0115,-0.014,-0.0169,-0.0176,-0.0183,-0.0194,-0.0216,-0.0199,-0.0195,-0.0195,-0.0243,-0.0243,-0.0243,-0.0244,-0.0244,-0.0244,0,0,0.0003,-0.0005,0.0004,-0.0,-0.0012,-0.0023,-0.0022,-0.0042,-0.0051,-0.0058,-0.0086,-0.0106,-0.0131,-0.015,-0.0163,-0.0149,-0.0192,-0.0154,-0.0127,-0.0171,-0.0172,-0.0172,-0.021,-0.0215,-0.0153,-0.0153,-0.0152,0,0.001,0.0021,0.0005,0.0014,0.0015,-0.0012,0.0001,-0.001,-0.0032,-0.0038,-0.0052,-0.0093,-0.0119,-0.013,-0.0124,-0.0139,-0.0171,-0.0141,-0.0166,-0.0167,-0.0169,-0.0208,-0.0214,-0.015,-0.015,-0.015,-0.0151,0,0.0035,0.0044,0.005,0.0055,0.0055,0.006,0.0048,0.0044,0.0029,0.0012,-0.0005,-0.0041,-0.0066,-0.0076,-0.0095,-0.0114,-0.0135,-0.0155,-0.0177,-0.0166,-0.0207,-0.0214,-0.0146,-0.0147,-0.0148,-0.0148,0,0,0.0048,0.0065,0.0066,0.008,0.0078,0.0082,0.0091,0.0087,0.0091,0.0062,0.0059,0.0026,-0.0002,-0.0018,-0.0048,-0.0086,-0.0124,-0.0121,-0.0124,-0.0155,-0.0222,-0.0216,-0.0224,-0.0151,-0.0152,-0.0153,-0.0244,0,0.0071,0.0101,0.0103,0.0133,0.0147,0.0137,0.0148,0.0141,0.0126,0.0117,0.0073,0.0059,0.0023,0.0013,-0.003,-0.0101,-0.0141,-0.0098,-0.0231,-0.0235,-0.0229,-0.0231,-0.0156,-0.025,-0.0252,-0.0253,-0.0254,0,0.0097,0.0113,0.0148,0.0175,0.018,0.0196,0.0208,0.0215,0.0195,0.0183,0.0156,0.0119,0.0071,0.0036,-0.0082,-0.0054,-0.0131,-0.0191,-0.0197,-0.0215,-0.0242,-0.0267,-0.0267,-0.0266,-0.0265,-0.0264,-0.0263,0,0.0114,0.0146,0.0178,0.0186,0.0209,0.0225,0.0237,0.0233,0.0248,0.0227,0.0227,0.0159,0.0129,0.0024,-0.0094,-0.0093,-0.0234,-0.0251,-0.0319,-0.032,-0.0322,-0.0321,-0.034,-0.034,-0.034,-0.034,-0.0339,0,0.0137,0.016,0.019,0.0206,0.0247,0.0253,0.0294,0.0292,0.0299,0.0319,0.0264,0.0256,0.0122,0.003,-0.0085,-0.022,-0.0231,-0.0315,-0.0343,-0.0296,-0.0291,-0.0327,-0.0325,-0.0343,-0.0342,-0.0342,-0.0341,0,0.0148,0.0166,0.0206,0.0241,0.0259,0.0287,0.0343,0.0366,0.0368,0.0392,0.039,0.0321,0.0204,0.0063,-0.0111,-0.0199,-0.0335,-0.0383,-0.0316,-0.0339,-0.0394,-0.0388,-0.0465,-0.0466,-0.0466,-0.0467,-0.0467,0,0.0155,0.0177,0.0234,0.0265,0.0284,0.0335,0.0372,0.0398,0.0429,0.0432,0.0441,0.0349,0.0285,0.0057,-0.0106,-0.0324,-0.0355,-0.0426,-0.0414,-0.0387,-0.0408,-0.04,-0.0393,-0.0468,-0.0468,-0.0468,-0.0468,0,0.0166,0.0188,0.0219,0.0286,0.0334,0.0395,0.045,0.0477,0.0507,0.0515,0.0497,0.0387,0.0255,0.0072,-0.0098,-0.0256,-0.038,-0.0432,-0.0432,-0.0421,-0.0391,-0.041,-0.0402,-0.047,-0.047,-0.047,-0.0469,0,0.0171,0.0195,0.0243,0.0301,0.0366,0.0426,0.0459,0.0502,0.0535,0.0545,0.0535,0.0404,0.0332,0.0105,-0.0055,-0.0206,-0.0246,-0.0293,-0.0301,-0.0301,-0.0227,-0.0164,-0.0197,0,0,0,0,0,0.0171,0.0199,0.0256,0.0323,0.0391,0.0435,0.0498,0.0526,0.056,0.0562,0.0558,0.0444,0.0229,0.013,-0.0018,-0.0095,-0.0299,-0.0277,-0.0364,-0.0479,-0.0477,-0.0418,0,0,0,0,0,0,0.0171,0.0214,0.0249,0.0332,0.0386,0.0464,0.0505,0.0529,0.0536,0.0551,0.0442,0.0413,0.0197,0.0325,-0.0015,-0.0063,-0.0139,-0.0372,-0.0375,-0.048,-0.0479,-0.0477,-0.0415,0,0,0,0,0]}]]